Буркандья

Россия / Магаданская область     63°22′46″N   147°32′43″E
темп.,
°C
ветер,
м/с
пор.,
м/с
влажн.,
%
обл.,
%
осадки,
мм/ч
давл.,
гПа
погр.,
м
8 мая, сб
сб823:00−8ссв229483 0.2 101812
02:00−9ссв229275 0.0 101914
05:00−10ссв329544 0.0 102013
08:00−6всв118810 0.0 101876
11:00−4ююв118257 0.0 1017330
14:00−3ююз118074 0.0 1016412
17:00−2юз118069 0.0 1015395
20:00−4ююз119076 0.0 101610
9 мая, вс
вс923:00−5ссв119598 0.0 101611
02:00−5св1195100 0.0 101611
05:00−6всв1197100 0.2 101610
08:00−4ююв2296100 0.8 1014141
11:00−3ююв2196100 2.5 1014259
14:00−2ююв1195100 0.9 1013294
17:00−1юв229084 1.4 1014329
20:00−2вюв119281 0.3 101515
10 мая, пн
пн1023:00−7св229431 0.4 101912
02:00−8ссв229692 0.0 101917
05:00−9ссв229785 0.0 102015
08:00−5вюв118861 0.0 101885
11:00−3ююв228294 0.0 1016294
14:00−2ю2284100 0.0 1015436
17:00−1юв1184100 0.1 1015369
20:00−2вюв1189100 0.1 101420
11 мая, вт
вт1123:00−3св1195100 0.9 101511
02:00−4св1198100 1.0 101510
05:00−4ссв2198100 1.4 101512
08:00−2всв119389 0.1 101599
11:00−1вюв118991 0.2 1014442
14:000в1281100 0.1 1013603
17:000вюв2388100 0.7 1013498
20:00−1в2489100 0.6 1013391
12 мая, ср
ср1223:00−3в2298100 5.4 101589
02:00−4св2297100 1.4 101564
05:00−5св2393100 1.8 101698
08:00−4св2385100 0.1 1015249
11:00−3всв2292100 0.8 1015359
14:00−3в2395100 1.8 1014407
17:00−2св2394100 2.7 1014336
20:00−3св2395100 2.0 1015244